Temperature
12 12 12 12 12 12 13 13 13 14 15 15 14 14 14 14 15 15 15 16 16 17 17 17 17 17 17 17 17 17 17 17 17 16 16 16 16 16
12 12 12 12 12 12 12 12 13 13 14 14 14 14 14 14 14 15 15 16 16 16 16 17 17 17 17 17 17 17 17 17 17 16 16 16 16 16
12 12 11 11 12 12 12 12 12 12 13 13 14 13 13 13 14 14 14 15 15 16 16 16 16 17 17 17 17 17 17 17 17 16 16 16 16 16
11 11 12 12 12 12 12 12 12 12 12 13 13 13 13 13 13 13 14 14 15 15 15 16 16 16 16 16 16 16 16 16 16 16 16 16 16 16
11 11 11 11 11 12 12 12 12 12 12 12 13 13 13 13 13 13 13 14 14 14 15 15 16 16 16 16 16 16 16 16 16 16 16 16 16 16
11 11 11 11 11 11 11 12 12 12 12 12 12 12 12 12 13 13 13 13 13 14 14 15 15 15 16 16 16 16 16 16 16 16 16 16 16 16
12 11 11 12 12 12 11 11 11 12 12 12 12 12 12 12 12 12 12 13 13 13 14 14 14 15 15 15 16 16 16 16 16 16 16 16 16 16
12 11 11 11 12 12 12 12 12 11 11 11 12 12 12 12 12 12 12 12 12 13 13 13 14 14 14 15 15 15 16 15 15 16 16 16 15 15
12 12 11 11 12 11 11 12 12 12 12 11 11 12 12 12 12 12 12 12 12 12 13 13 13 14 14 14 15 15 15 15 15 15 15 15 15 15
12 12 12 11 11 11 11 11 11 11 11 11 11 11 11 11 11 12 12 12 12 12 12 12 13 13 13 14 14 15 15 15 15 15 15 15 15 15
12 12 12 12 12 12 11 11 11 11 11 12 12 12 12 12 12 12 12 11 12 12 12 12 12 13 13 13 14 14 14 14 14 15 15 15 15 15
12 12 12 12 12 12 11 11 11 11 11 11 11 11 11 12 12 12 12 11 11 12 12 12 12 12 12 13 13 13 13 14 14 14 14 14 14 14
12 12 12 12 12 12 12 11 11 11 11 11 11 11 11 11 11 11 11 11 11 11 11 11 12 12 12 12 12 13 13 13 13 13 14 14 14 14
12 12 12 12 12 12 12 12 12 11 11 11 11 11 11 11 11 11 11 11 11 11 11 11 11 11 11 11 11 12 12 12 12 13 13 13 13 13
12 12 12 12 12 11 11 11 11 11 11 11 11 11 11 11 11 11 11 11 11 11 11 11 11 11 11 11 11 11 11 12 12 12 12 12 13 13
12 12 12 12 11 11 11 11 11 10 10 10 10 10 10 10 11 11 11 11 11 11 11 11 11 11 11 11 11 11 11 11 11 12 12 12 12 12
11 11 11 11 11 10 10 10 10 10 10 10 10 10 10 10 10 10 10 10 10 10 10 11 10 10 11 11 11 11 11 11 11 11 11 11 12 12
11 10 10 10 10 10 10 10 10 10 10 9 9 9 9 9 9 9 9 10 10 10 10 10 10 10 10 11 11 11 11 11 11 11 11 11 11 12
10 9 9 9 9 9 9 9 9 9 9 9 9 9 9 9 9 9 9 9 9 9 9 9 9 9 9 10 10 10 10 10 10 10 11 11 11 11
9 8 8 8 8 8 8 8 8 8 8 8 7 8 8 8 8 8 8 8 8 8 8 8 9 9 9 9 9 10 10 10 10 10 10 10 10 11
7 7 7 7 7 7 7 7 6 6 6 6 6 6 6 7 7 7 7 7 7 7 7 7 8 8 8 8 8 9 9 9 9 9 10 10 10 10
6 6 6 6 6 5 5 5 5 5 5 5 5 5 5 5 5 5 5 5 5 6 6 6 7 7 7 7 7 8 8 9 9 9 9 9 9 9
5 5 5 5 4 4 4 4 4 4 4 4 4 4 4 4 4 4 4 4 4 4 5 5 5 6 6 6 6 7 7 8 8 8 9 9 9 9
Wind_Speed
3 3 3 2 3 3 3 3 3 4 3 2 1 1 2 3 2 5 7 6 8 10 12 14 15 16 17 18 19 21 21 22 22 22 23 23 23 22
2 3 3 3 3 3 3 4 4 4 4 3 3 3 3 4 3 6 6 5 10 11 12 13 14 16 17 18 19 20 21 22 22 23 24 24 24 24
2 3 3 3 3 3 3 4 4 4 6 6 4 4 5 5 4 5 5 6 7 10 11 12 13 15 17 18 19 20 21 21 22 23 24 24 24 24
3 3 3 2 3 3 3 4 4 4 5 7 6 5 5 5 5 6 5 5 7 7 10 13 14 15 16 17 18 19 20 21 22 23 24 24 25 24
3 3 3 3 3 3 3 4 4 4 5 6 6 5 5 5 5 6 6 5 7 7 9 13 14 15 16 17 18 19 20 21 22 23 24 24 25 25
2 3 3 3 3 3 3 4 4 5 5 5 6 5 5 5 5 5 5 5 6 6 7 8 10 14 16 17 18 18 19 20 21 22 23 24 25 25
3 3 2 3 5 5 4 4 4 4 5 5 5 5 5 4 4 4 6 6 6 6 6 6 7 8 9 14 17 18 19 20 20 21 22 23 24 25
4 3 2 2 2 3 4 5 6 6 6 5 6 6 6 5 5 5 6 6 5 3 5 7 7 8 8 9 10 13 17 19 19 20 21 22 23 24
5 4 3 2 3 4 3 5 5 5 7 8 8 7 7 6 6 7 6 7 7 6 6 8 7 8 7 8 9 12 15 17 18 19 20 21 22 23
6 5 5 4 3 5 6 5 5 4 5 7 7 7 7 7 7 8 8 8 8 7 6 7 7 8 7 7 9 13 14 15 16 17 19 20 21 22
6 5 5 5 0 4 6 6 6 4 4 6 7 8 8 9 8 7 7 6 7 6 5 6 7 7 7 8 7 11 14 15 16 17 18 19 20 20
5 5 3 5 2 4 6 6 6 5 5 5 6 8 7 6 6 7 7 6 6 5 4 5 6 5 5 6 6 6 9 12 15 16 17 18 17 13
5 5 3 4 4 5 7 6 6 7 7 6 5 5 5 5 4 5 5 5 6 6 5 4 6 6 6 6 6 7 7 7 7 9 13 16 17 14
6 5 2 4 4 5 5 4 6 7 6 5 5 5 5 5 5 5 5 6 7 9 8 7 6 7 7 8 7 6 7 7 8 8 8 9 13 17
5 1 2 3 4 5 3 4 6 5 4 5 5 5 5 5 6 5 6 6 7 8 8 8 8 8 7 8 8 8 8 8 8 8 8 7 8 8
5 4 5 3 3 2 2 3 3 3 4 5 5 5 5 5 5 5 5 5 6 6 6 7 8 8 8 9 9 10 9 7 7 8 8 8 8 8
3 3 3 2 2 1 2 2 3 3 3 4 5 5 6 6 6 5 5 6 6 6 7 6 6 7 9 9 9 10 10 9 9 9 8 9 9 9
2 2 2 1 1 2 3 3 3 4 5 5 5 5 5 6 6 6 6 6 7 7 7 7 7 7 7 8 10 10 9 9 9 9 8 9 10 9
3 3 3 3 3 3 3 3 4 4 4 4 5 5 6 5 6 6 6 6 7 8 8 7 7 6 8 10 7 8 9 9 9 9 9 9 11 10
5 5 4 4 4 3 3 4 4 4 4 5 5 5 6 6 6 6 6 7 8 8 9 8 7 7 7 9 9 9 10 11 10 10 10 9 10 10
5 5 4 4 4 4 4 4 4 4 5 5 5 6 6 6 6 7 7 8 8 8 9 9 9 10 10 8 9 10 10 10 11 11 11 9 10 9
4 4 4 3 3 3 3 3 4 4 5 5 5 6 6 6 7 8 8 9 8 8 10 10 11 10 8 9 11 13 13 12 11 13 14 12 9 8
3 2 2 2 2 3 3 4 5 5 5 6 6 7 7 7 8 8 9 9 9 11 11 11 10 10 10 10 11 12 15 15 12 11 10 11 16 18
Wind_Direction
312 301 290 294 286 282 279 273 275 271 256 237 238 244 277 276 266 262 262 227 237 245 244 241 238 235 234 231 230 229 228 229 228 226 224 225 226 225
306 297 295 284 288 275 269 265 263 273 276 272 268 283 300 281 253 268 268 262 248 245 246 244 240 238 236 234 232 231 231 230 229 227 225 225 226 227
294 295 291 293 281 275 269 261 254 256 266 277 277 279 276 279 277 274 269 265 255 232 241 246 245 242 240 238 235 233 232 231 229 228 226 226 227 227
309 299 292 289 287 281 273 263 257 256 263 275 280 282 277 281 282 282 278 271 270 241 238 246 247 245 241 239 238 236 234 232 230 228 227 227 227 226
312 310 306 295 289 282 269 267 265 261 259 268 279 284 279 279 285 279 274 274 273 260 241 242 243 243 242 240 238 237 236 235 233 230 227 226 226 225
293 296 301 301 300 295 279 271 267 266 263 266 272 274 276 281 280 281 281 274 272 271 263 256 245 240 240 240 239 238 237 236 236 233 231 227 226 225
283 282 300 330 335 312 303 294 278 270 268 269 270 271 272 276 277 281 281 287 280 268 271 263 253 250 244 236 234 234 234 234 235 235 234 231 228 226
287 284 269 246 257 267 289 302 301 285 281 270 269 269 273 272 272 272 278 279 276 268 276 274 265 259 254 252 239 230 231 233 232 232 234 233 231 228
292 290 285 283 274 287 260 239 251 251 265 278 279 280 283 285 282 277 274 274 272 280 281 274 267 263 261 256 237 236 237 236 235 233 232 232 231 230
271 277 276 273 282 305 296 290 289 279 267 263 275 284 290 293 287 282 280 277 274 266 258 266 271 271 271 264 233 229 234 237 236 235 235 234 233 232
260 262 270 271 79 293 283 289 292 287 235 235 268 281 293 287 281 274 268 266 273 272 260 260 277 283 279 270 250 225 231 235 238 238 238 236 235 233
253 247 229 265 299 274 276 286 291 300 301 275 250 246 260 256 242 259 269 269 274 275 264 262 274 286 282 270 266 260 247 238 235 238 238 237 232 233
253 247 230 185 245 262 275 287 308 309 295 291 291 291 288 285 277 269 268 266 269 269 279 279 277 274 268 278 283 280 273 268 253 246 237 232 228 225
256 255 224 163 225 251 270 317 313 292 281 285 290 294 300 299 298 294 281 269 264 271 283 284 275 278 279 281 282 281 279 276 267 260 255 233 227 225
255 24 86 175 229 231 220 280 285 277 286 291 296 301 304 304 305 297 288 280 277 274 274 274 270 271 269 272 278 281 284 282 273 265 262 255 247 238
231 173 170 188 236 287 266 251 279 309 309 302 305 308 307 303 298 299 297 298 291 286 277 273 274 273 272 273 273 278 279 276 276 275 270 264 257 249
193 182 187 191 214 249 295 326 334 331 319 317 315 315 315 314 312 311 302 298 293 295 298 291 279 271 267 272 275 274 276 276 273 275 274 270 264 257
159 163 147 111 40 8 360 359 6 3 352 343 337 333 330 327 323 323 318 310 307 306 307 309 307 298 285 265 241 264 272 274 278 277 273 271 271 264
100 90 80 66 53 39 29 22 15 8 358 356 355 350 342 335 330 328 327 326 321 316 312 309 307 303 297 297 282 238 269 283 285 281 276 272 273 273
73 74 69 59 50 41 32 22 14 8 5 2 360 356 352 345 342 340 337 336 326 320 316 317 320 320 305 297 295 288 258 267 276 278 280 279 276 276
75 72 66 58 49 39 30 21 13 4 0 356 356 351 347 342 340 337 333 332 326 322 321 319 320 314 301 292 287 286 287 263 263 275 284 283 281 276
76 72 63 51 39 28 15 2 355 353 350 348 346 342 339 336 333 331 329 327 324 320 317 315 317 316 313 304 300 299 300 298 279 256 256 255 264 269
71 60 52 33 9 352 342 336 334 334 335 333 332 330 328 325 322 320 319 319 318 318 318 317 318 316 311 306 303 302 302 303 300 293 281 258 246 253
Height
1495 1495 1495 1495 1495 1495 1495 1496 1497 1497 1497 1497 1498 1498 1498 1499 1499 1500 1502 1503 1505 1506 1508 1510 1512 1514 1516 1518 1520 1522 1524 1527 1528 1530 1532 1534 1536 1538
1493 1493 1493 1493 1493 1493 1493 1494 1494 1495 1495 1495 1496 1496 1495 1496 1496 1496 1497 1498 1499 1501 1503 1505 1507 1508 1510 1513 1515 1517 1519 1521 1523 1525 1527 1529 1531 1533
1493 1492 1492 1491 1492 1491 1491 1492 1492 1493 1493 1493 1493 1493 1492 1493 1493 1493 1493 1494 1495 1496 1497 1499 1500 1502 1504 1506 1508 1511 1513 1515 1517 1519 1521 1523 1525 1527
1492 1492 1491 1490 1490 1490 1489 1490 1490 1490 1490 1490 1490 1490 1489 1489 1489 1489 1489 1489 1490 1490 1491 1492 1494 1496 1498 1500 1502 1504 1506 1508 1510 1512 1514 1516 1518 1520
1491 1491 1490 1489 1488 1488 1488 1488 1488 1488 1487 1487 1487 1486 1486 1486 1485 1485 1485 1485 1485 1486 1486 1487 1488 1490 1491 1493 1495 1496 1498 1500 1503 1505 1507 1509 1511 1513
1491 1490 1489 1488 1487 1487 1486 1486 1485 1485 1485 1484 1484 1483 1483 1482 1482 1482 1482 1482 1481 1481 1481 1482 1482 1483 1484 1486 1488 1489 1491 1493 1495 1497 1499 1502 1504 1506
1490 1489 1488 1486 1485 1484 1484 1484 1483 1483 1482 1482 1481 1480 1480 1479 1479 1478 1478 1477 1477 1477 1477 1477 1478 1478 1478 1479 1480 1481 1483 1485 1487 1489 1491 1494 1496 1498
1489 1488 1487 1485 1484 1482 1482 1481 1480 1480 1480 1479 1478 1478 1477 1476 1476 1475 1475 1474 1474 1474 1473 1473 1473 1472 1472 1473 1473 1474 1476 1477 1479 1481 1483 1485 1487 1489
1488 1487 1486 1484 1483 1482 1481 1479 1478 1477 1477 1476 1476 1475 1474 1474 1473 1472 1472 1470 1470 1469 1469 1467 1468 1467 1467 1467 1467 1468 1469 1470 1471 1473 1474 1476 1478 1480
1486 1485 1484 1483 1482 1480 1480 1479 1477 1476 1474 1473 1473 1472 1471 1470 1469 1469 1468 1466 1465 1465 1464 1464 1463 1462 1462 1461 1461 1461 1462 1462 1463 1465 1466 1468 1470 1472
1484 1483 1482 1481 1479 1478 1477 1477 1475 1474 1472 1471 1470 1469 1468 1467 1466 1465 1464 1463 1462 1461 1461 1460 1458 1458 1456 1455 1455 1455 1455 1455 1456 1457 1458 1460 1462 1463
1481 1481 1479 1478 1477 1476 1475 1475 1474 1473 1471 1470 1468 1467 1466 1464 1463 1462 1461 1460 1459 1458 1457 1456 1455 1454 1452 1451 1450 1450 1449 1448 1449 1450 1451 1452 1453 1454
1479 1478 1477 1475 1475 1474 1473 1472 1471 1470 1468 1468 1467 1465 1464 1463 1461 1460 1458 1457 1456 1455 1454 1453 1451 1450 1449 1447 1445 1445 1444 1443 1443 1443 1443 1444 1445 1446
1475 1475 1474 1473 1472 1471 1471 1470 1469 1467 1467 1466 1465 1463 1462 1461 1459 1457 1456 1454 1453 1452 1450 1449 1448 1446 1445 1442 1441 1440 1439 1438 1437 1437 1437 1437 1437 1438
1471 1471 1471 1470 1470 1469 1468 1468 1467 1466 1465 1464 1463 1461 1460 1458 1456 1454 1453 1451 1450 1448 1447 1445 1444 1442 1441 1439 1437 1435 1434 1433 1432 1431 1431 1430 1430 1431
1467 1467 1467 1467 1467 1467 1466 1465 1464 1464 1462 1461 1460 1458 1457 1455 1453 1452 1450 1448 1447 1445 1444 1442 1440 1438 1436 1435 1433 1431 1430 1429 1427 1426 1425 1424 1424 1423
1463 1463 1464 1464 1464 1464 1464 1463 1462 1461 1460 1459 1457 1456 1454 1452 1451 1449 1447 1445 1444 1442 1440 1438 1437 1434 1433 1431 1429 1427 1426 1424 1423 1421 1420 1418 1417 1417
1460 1461 1461 1461 1461 1461 1461 1460 1459 1458 1457 1456 1455 1453 1452 1450 1448 1446 1445 1443 1441 1439 1437 1435 1433 1430 1429 1427 1425 1423 1421 1420 1418 1417 1415 1413 1411 1410
1458 1458 1459 1459 1459 1458 1458 1457 1456 1455 1454 1453 1452 1450 1449 1447 1445 1444 1442 1440 1438 1436 1434 1432 1430 1427 1425 1422 1420 1419 1417 1415 1413 1411 1409 1407 1405 1404
1456 1456 1456 1456 1456 1456 1456 1455 1454 1453 1452 1451 1449 1448 1446 1444 1442 1440 1438 1437 1434 1432 1430 1428 1426 1424 1421 1419 1415 1413 1412 1410 1407 1405 1403 1401 1399 1397
1455 1455 1455 1455 1455 1454 1454 1453 1452 1451 1450 1449 1447 1445 1443 1442 1440 1438 1436 1433 1431 1429 1426 1424 1422 1420 1416 1414 1410 1407 1406 1404 1402 1400 1398 1395 1393 1391
1454 1454 1454 1453 1453 1453 1452 1451 1450 1449 1448 1447 1445 1443 1441 1439 1437 1435 1433 1430 1428 1425 1422 1420 1417 1414 1412 1409 1405 1402 1399 1397 1395 1393 1392 1390 1387 1384
1454 1453 1453 1452 1451 1451 1450 1449 1448 1447 1446 1444 1442 1440 1438 1436 1434 1432 1429 1427 1424 1422 1419 1415 1412 1410 1407 1404 1401 1397 1394 1391 1388 1386 1384 1382 1381 1378